Location: Chuathbaluk
(61.5726°N, 159.2454°W)
Time: 16:48:39
(UTC+00:00)

TIGRISAT - Pass Details

Date: 24 January 2021
Orbit: 605 x 688 km, 97.7° (Epoch: 06 March)

Event Time Altitude Azimuth Distance (km) Brightness Sun altitude
Rises 14:26:37 0° 89° (E) 2,906 ? -33.3°
Reaches altitude 10° 14:30:01 10° 60° (ENE) 2,020 ? -32.9°
Maximum altitude 14:31:48 12° 36° (NE) 1,875 ? -32.7°
Drops below altitude 10° 14:33:37 10° 12° (NNE) 2,044 ? -32.5°
Enters shadow 14:35:01 - 358° (N) 2,352 ? -32.4°
